| time (UTC) | temp F | wind direction | speed MPH | gust MPH | rain 1hr in | rain 24hr in | rain mn in | humidity % | barometer mb |
| 20260902163538 | 54 | 299 | 10.0 | 16.0 | 0.00 | 0.00 | 0.00 | 89 | 1014.7 |
| 20260902163057 | 54 | 288 | 9.0 | 15.0 | 0.00 | 0.00 | 0.00 | 89 | 1014.9 |
| 20260902162537 | 54 | 277 | 7.0 | 17.0 | 0.00 | 0.00 | 0.00 | 89 | 1015.0 |
| 20260902162036 | 54 | 300 | 7.0 | 17.0 | 0.00 | 0.00 | 0.00 | 89 | 1015.0 |
| 20260902161600 | 54 | 271 | 10.0 | 17.0 | 0.00 | 0.00 | 0.00 | 89 | 1014.7 |
| 20260902161042 | 55 | 273 | 8.0 | 16.0 | 0.00 | 0.00 | 0.00 | 89 | 1014.6 |
| 20260902160543 | 55 | 300 | 10.0 | 20.0 | 0.00 | 0.00 | 0.00 | 90 | 1014.5 |
| 20260902160049 | 55 | 299 | 12.0 | 20.0 | 0.00 | 0.00 | 0.00 | 90 | 1014.4 |
| 20260902155539 | 55 | 288 | 12.0 | 19.0 | 0.00 | 0.00 | 0.00 | 89 | 1014.3 |
| 20260902155036 | 55 | 271 | 12.0 | 19.0 | 0.00 | 0.00 | 0.00 | 89 | 1014.3 |
| 20260902154611 | 55 | 266 | 11.0 | 17.0 | 0.00 | 0.00 | 0.00 | 89 | 1014.2 |
| 20260902154035 | 55 | 263 | 9.0 | 19.0 | 0.00 | 0.00 | 0.00 | 89 | 1014.2 |
| 20260902153539 | 55 | 292 | 11.0 | 19.0 | 0.00 | 0.00 | 0.00 | 89 | 1014.3 |
| 20260902153059 | 55 | 250 | 11.0 | 16.0 | 0.00 | 0.00 | 0.00 | 89 | 1014.3 |
| 20260902152539 | 55 | 265 | 10.0 | 15.0 | 0.00 | 0.00 | 0.00 | 89 | 1014.2 |
| 20260902152039 | 55 | 265 | 8.0 | 16.0 | 0.00 | 0.00 | 0.00 | 89 | 1014.3 |
| 20260902151555 | 55 | 263 | 8.0 | 16.0 | 0.00 | 0.00 | 0.00 | 89 | 1014.3 |
| 20260902151036 | 55 | 286 | 9.0 | 16.0 | 0.00 | 0.00 | 0.00 | 89 | 1014.4 |
| 20260902150539 | 55 | 236 | 8.0 | 15.0 | 0.00 | 0.00 | 0.00 | 89 | 1014.3 |
| 20260902150051 | 55 | 248 | 8.0 | 16.0 | 0.00 | 0.00 | 0.00 | 89 | 1014.3 |
| 20260902145539 | 55 | 259 | 7.0 | 20.0 | 0.00 | 0.00 | 0.00 | 89 | 1014.3 |
| 20260902145035 | 55 | 255 | 11.0 | 20.0 | 0.00 | 0.00 | 0.00 | 89 | 1014.3 |
| 20260902144558 | 55 | 305 | 14.0 | 20.0 | 0.00 | 0.00 | 0.00 | 89 | 1014.2 |
| 20260902144036 | 55 | 292 | 13.0 | 20.0 | 0.00 | 0.00 | 0.00 | 89 | 1014.2 |
| 20260902143539 | 55 | 273 | 12.0 | 20.0 | 0.00 | 0.00 | 0.00 | 89 | 1014.2 |
| 20260902143058 | 55 | 269 | 13.0 | 20.0 | 0.00 | 0.00 | 0.00 | 89 | 1014.3 |
| 20260902142536 | 55 | 269 | 11.0 | 17.0 | 0.00 | 0.00 | 0.00 | 89 | 1014.4 |
| 20260902142036 | 55 | 263 | 11.0 | 16.0 | 0.00 | 0.00 | 0.00 | 89 | 1014.6 |
| 20260902141550 | 55 | 261 | 10.0 | 14.0 | 0.00 | 0.00 | 0.00 | 89 | 1014.7 |
| 20260902141038 | 55 | 249 | 7.0 | 17.0 | 0.00 | 0.00 | 0.00 | 89 | 1014.7 |
| 20260902140540 | 55 | 279 | 8.0 | 17.0 | 0.00 | 0.00 | 0.00 | 89 | 1014.8 |
| 20260902140048 | 55 | 279 | 10.0 | 17.0 | 0.00 | 0.00 | 0.00 | 89 | 1014.6 |
| 20260902135535 | 54 | 279 | 10.0 | 18.0 | 0.00 | 0.00 | 0.00 | 89 | 1014.5 |
| 20260902135036 | 54 | 291 | 10.0 | 19.0 | 0.00 | 0.00 | 0.00 | 89 | 1014.5 |
| 20260902134547 | 54 | 289 | 12.0 | 21.0 | 0.00 | 0.00 | 0.00 | 89 | 1014.5 |
| 20260902134038 | 54 | 283 | 12.0 | 23.0 | 0.00 | 0.00 | 0.00 | 89 | 1014.3 |
| 20260902133536 | 54 | 283 | 14.0 | 23.0 | 0.00 | 0.00 | 0.00 | 89 | 1014.4 |
| 20260902133102 | 54 | 288 | 13.0 | 24.0 | 0.00 | 0.00 | 0.00 | 89 | 1014.3 |
| 20260902132536 | 54 | 309 | 13.0 | 24.0 | 0.00 | 0.00 | 0.00 | 89 | 1014.1 |
| 20260902132036 | 54 | 270 | 14.0 | 24.0 | 0.00 | 0.00 | 0.00 | 89 | 1014.0 |
| 20260902131552 | 54 | 279 | 8.0 | 16.0 | 0.00 | 0.00 | 0.00 | 89 | 1014.2 |
| 20260902131044 | 54 | 259 | 8.0 | 19.0 | 0.00 | 0.00 | 0.00 | 89 | 1014.3 |
| 20260902130541 | 54 | 277 | 11.0 | 21.0 | 0.00 | 0.00 | 0.00 | 90 | 1014.0 |
| 20260902130058 | 54 | 270 | 10.0 | 21.0 | 0.00 | 0.00 | 0.00 | 90 | 1013.8 |
| 20260902125540 | 54 | 279 | 11.0 | 19.0 | 0.00 | 0.00 | 0.00 | 90 | 1013.6 |
| 20260902125039 | 54 | 299 | 12.0 | 19.0 | 0.00 | 0.00 | 0.00 | 90 | 1013.6 |
| 20260902124605 | 54 | 241 | 10.0 | 18.0 | 0.00 | 0.00 | 0.00 | 90 | 1013.7 |
| 20260902124038 | 54 | 278 | 10.0 | 19.0 | 0.00 | 0.00 | 0.00 | 90 | 1013.7 |
| 20260902123538 | 54 | 262 | 10.0 | 19.0 | 0.00 | 0.00 | 0.00 | 90 | 1013.7 |
| 20260902123053 | 54 | 273 | 9.0 | 15.0 | 0.00 | 0.00 | 0.00 | 90 | 1013.8 |
| 20260902122539 | 54 | 264 | 9.0 | 15.0 | 0.00 | 0.00 | 0.00 | 90 | 1014.0 |
| 20260902122039 | 54 | 268 | 8.0 | 14.0 | 0.00 | 0.00 | 0.00 | 91 | 1014.0 |
| 20260902121550 | 54 | 240 | 6.0 | 13.0 | 0.00 | 0.00 | 0.00 | 91 | 1014.1 |
| 20260902121039 | 54 | 274 | 6.0 | 13.0 | 0.00 | 0.00 | 0.00 | 91 | 1014.1 |
| 20260902120539 | 54 | 293 | 7.0 | 13.0 | 0.00 | 0.00 | 0.00 | 90 | 1014.3 |
| 20260902120059 | 54 | 295 | 7.0 | 14.0 | 0.00 | 0.00 | 0.00 | 90 | 1014.3 |
| 20260902115538 | 54 | 315 | 8.0 | 15.0 | 0.00 | 0.00 | 0.00 | 90 | 1014.3 |
| 20260902115040 | 54 | 271 | 8.0 | 15.0 | 0.00 | 0.00 | 0.00 | 90 | 1014.4 |
| 20260902114557 | 54 | 268 | 8.0 | 16.0 | 0.00 | 0.00 | 0.00 | 90 | 1014.4 |
| 20260902114038 | 54 | 273 | 9.0 | 17.0 | 0.00 | 0.00 | 0.00 | 90 | 1014.3 |
| 20260902113538 | 54 | 284 | 11.0 | 26.0 | 0.00 | 0.00 | 0.00 | 90 | 1014.2 |
| 20260902113055 | 54 | 252 | 11.0 | 26.0 | 0.00 | 0.00 | 0.00 | 90 | 1014.2 |
| 20260902112541 | 54 | 339 | 16.0 | 26.0 | 0.00 | 0.00 | 0.00 | 90 | 1014.1 |
| 20260902112037 | 54 | 273 | 9.0 | 19.0 | 0.00 | 0.00 | 0.00 | 90 | 1013.9 |
| 20260902111559 | 54 | 273 | 10.0 | 17.0 | 0.00 | 0.00 | 0.00 | 90 | 1014.1 |
| 20260902111040 | 54 | 286 | 9.0 | 20.0 | 0.00 | 0.00 | 0.00 | 89 | 1014.1 |
| 20260902110540 | 55 | 290 | 11.0 | 20.0 | 0.00 | 0.00 | 0.00 | 89 | 1014.2 |
| 20260902110046 | 55 | 275 | 10.0 | 20.0 | 0.00 | 0.00 | 0.00 | 89 | 1014.1 |
| 20260902105538 | 55 | 272 | 9.0 | 18.0 | 0.00 | 0.00 | 0.00 | 89 | 1014.3 |
| 20260902105043 | 55 | 272 | 9.0 | 15.0 | 0.00 | 0.00 | 0.00 | 89 | 1014.4 |
| 20260902104557 | 55 | 308 | 10.0 | 15.0 | 0.00 | 0.00 | 0.00 | 89 | 1014.4 |
| 20260902104038 | 55 | 280 | 8.0 | 15.0 | 0.00 | 0.00 | 0.00 | 90 | 1014.4 |
| 20260902103541 | 55 | 276 | 8.0 | 13.0 | 0.00 | 0.00 | 0.00 | 90 | 1014.4 |
| 20260902103100 | 55 | 291 | 7.0 | 13.0 | 0.00 | 0.00 | 0.00 | 90 | 1014.5 |
| 20260902102539 | 55 | 274 | 7.0 | 14.0 | 0.00 | 0.00 | 0.00 | 90 | 1014.6 |
| 20260902102040 | 55 | 267 | 8.0 | 14.0 | 0.00 | 0.00 | 0.00 | 91 | 1014.9 |
| 20260902101556 | 54 | 269 | 7.0 | 14.0 | 0.00 | 0.00 | 0.00 | 91 | 1015.0 |
| 20260902101039 | 54 | 308 | 6.0 | 11.0 | 0.00 | 0.00 | 0.00 | 91 | 1015.0 |
| 20260902100539 | 54 | 281 | 4.0 | 11.0 | 0.00 | 0.00 | 0.00 | 91 | 1015.0 |
| 20260902100048 | 54 | 290 | 3.0 | 7.0 | 0.00 | 0.00 | 0.00 | 91 | 1015.0 |
| 20260902095539 | 54 | 261 | 3.0 | 8.0 | 0.00 | 0.00 | 0.00 | 90 | 1014.8 |
| 20260902095038 | 54 | 270 | 3.0 | 8.0 | 0.00 | 0.00 | 0.00 | 90 | 1014.9 |
| 20260902094557 | 54 | 271 | 5.0 | 11.0 | 0.00 | 0.00 | 0.00 | 90 | 1014.8 |
| 20260902094036 | 54 | 296 | 4.0 | 11.0 | 0.00 | 0.00 | 0.00 | 90 | 1014.7 |
| 20260902093536 | 54 | 303 | 5.0 | 11.0 | 0.00 | 0.00 | 0.00 | 91 | 1015.1 |
| 20260902093125 | 54 | 263 | 3.0 | 8.0 | 0.00 | 0.00 | 0.00 | 91 | 1015.1 |
| 20260902092539 | 54 | 270 | 3.0 | 8.0 | 0.00 | 0.00 | 0.00 | 91 | 1015.1 |
| 20260902092041 | 54 | 252 | 4.0 | 9.0 | 0.00 | 0.00 | 0.00 | 91 | 1015.1 |
| 20260902091600 | 54 | 53 | 3.0 | 9.0 | 0.00 | 0.00 | 0.00 | 91 | 1015.0 |
| 20260902091040 | 54 | 264 | 3.0 | 8.0 | 0.00 | 0.00 | 0.00 | 91 | 1014.8 |
| 20260902090539 | 53 | 281 | 2.0 | 4.0 | 0.00 | 0.00 | 0.00 | 91 | 1014.7 |
| 20260902090101 | 54 | 290 | 1.0 | 4.0 | 0.00 | 0.00 | 0.00 | 91 | 1015.0 |
| 20260902085538 | 54 | 277 | 2.0 | 6.0 | 0.00 | 0.00 | 0.00 | 90 | 1015.1 |
| 20260902085038 | 54 | 273 | 3.0 | 6.0 | 0.00 | 0.00 | 0.00 | 90 | 1015.3 |
| 20260902084559 | 54 | 273 | 2.0 | 6.0 | 0.00 | 0.00 | 0.00 | 90 | 1015.1 |
| 20260902084039 | 54 | 254 | 2.0 | 9.0 | 0.00 | 0.00 | 0.00 | 90 | 1015.1 |
| 20260902083535 | 54 | 260 | 2.0 | 9.0 | 0.00 | 0.00 | 0.00 | 89 | 1015.0 |
| 20260902083056 | 54 | 279 | 3.0 | 9.0 | 0.00 | 0.00 | 0.00 | 89 | 1015.1 |
| 20260902082535 | 54 | 277 | 4.0 | 9.0 | 0.00 | 0.00 | 0.00 | 89 | 1015.2 |
| 20260902082038 | 55 | 261 | 5.0 | 9.0 | 0.00 | 0.00 | 0.00 | 88 | 1015.2 |
| 20260902081610 | 55 | 268 | 2.0 | 18.0 | 0.00 | 0.00 | 0.00 | 88 | 1015.1 |
| 20260902081039 | 55 | 272 | 8.0 | 19.0 | 0.00 | 0.00 | 0.00 | 87 | 1015.1 |
| 20260902080539 | 55 | 298 | 13.0 | 19.0 | 0.00 | 0.00 | 0.00 | 87 | 1015.0 |
| 20260902080049 | 55 | 254 | 11.0 | 19.0 | 0.00 | 0.00 | 0.00 | 88 | 1015.0 |
| 20260902075538 | 55 | 302 | 11.0 | 19.0 | 0.00 | 0.00 | 0.00 | 88 | 1014.8 |
| 20260902075039 | 55 | 330 | 9.0 | 16.0 | 0.00 | 0.00 | 0.00 | 87 | 1014.8 |
| 20260902074559 | 55 | 288 | 9.0 | 16.0 | 0.00 | 0.00 | 0.00 | 87 | 1014.8 |
| 20260902074039 | 55 | 277 | 7.0 | 14.0 | 0.00 | 0.00 | 0.00 | 87 | 1014.7 |
| 20260902073538 | 55 | 279 | 7.0 | 14.0 | 0.00 | 0.00 | 0.00 | 87 | 1014.9 |
| 20260902073055 | 55 | 296 | 8.0 | 14.0 | 0.00 | 0.00 | 0.00 | 87 | 1014.8 |
| 20260902072539 | 55 | 275 | 10.0 | 16.0 | 0.00 | 0.00 | 0.00 | 86 | 1014.9 |
| 20260902072035 | 55 | 313 | 9.0 | 16.0 | 0.00 | 0.00 | 0.00 | 86 | 1015.0 |
| 20260902071601 | 55 | 294 | 9.0 | 16.0 | 0.00 | 0.00 | 0.00 | 86 | 1014.9 |
| 20260902071038 | 55 | 298 | 8.0 | 16.0 | 0.00 | 0.00 | 0.00 | 86 | 1015.0 |
| 20260902070538 | 55 | 267 | 9.0 | 17.0 | 0.00 | 0.00 | 0.00 | 86 | 1015.0 |
| 20260902070051 | 55 | 268 | 6.0 | 17.0 | 0.00 | 0.00 | 0.00 | 86 | 1015.0 |
| 20260902065539 | 55 | 282 | 8.0 | 17.0 | 0.00 | 0.00 | 0.00 | 86 | 1015.0 |
| 20260902065039 | 55 | 257 | 9.0 | 17.0 | 0.00 | 0.00 | 0.00 | 86 | 1014.8 |
| 20260902064558 | 55 | 280 | 10.0 | 21.0 | 0.00 | 0.00 | 0.00 | 86 | 1014.8 |
| 20260902064039 | 55 | 273 | 11.0 | 21.0 | 0.00 | 0.00 | 0.00 | 87 | 1014.8 |
| 20260902063538 | 55 | 269 | 12.0 | 18.0 | 0.00 | 0.00 | 0.00 | 87 | 1014.9 |
| 20260902063058 | 55 | 290 | 9.0 | 17.0 | 0.00 | 0.00 | 0.00 | 88 | 1014.8 |
| 20260902062541 | 55 | 263 | 12.0 | 21.0 | 0.00 | 0.00 | 0.00 | 88 | 1014.7 |
| 20260902062038 | 55 | 284 | 13.0 | 21.0 | 0.00 | 0.00 | 0.00 | 88 | 1014.5 |
| 20260902061554 | 55 | 296 | 13.0 | 27.0 | 0.00 | 0.00 | 0.00 | 88 | 1014.5 |
| 20260902061038 | 55 | 247 | 15.0 | 27.0 | 0.00 | 0.00 | 0.00 | 88 | 1014.3 |
| 20260902060537 | 55 | 293 | 12.0 | 24.0 | 0.00 | 0.00 | 0.00 | 88 | 1014.0 |
| 20260902060056 | 55 | 269 | 13.0 | 23.0 | 0.00 | 0.00 | 0.00 | 87 | 1014.0 |
| 20260902055538 | 55 | 317 | 9.0 | 19.0 | 0.00 | 0.00 | 0.00 | 87 | 1014.0 |
| 20260902055039 | 55 | 236 | 9.0 | 19.0 | 0.00 | 0.00 | 0.00 | 87 | 1014.2 |
| 20260902054559 | 55 | 260 | 9.0 | 24.0 | 0.00 | 0.00 | 0.00 | 87 | 1014.1 |
| 20260902054035 | 55 | 240 | 10.0 | 24.0 | 0.00 | 0.00 | 0.00 | 86 | 1014.2 |
| 20260902053538 | 55 | 300 | 9.0 | 23.0 | 0.00 | 0.00 | 0.00 | 86 | 1014.1 |
| 20260902053057 | 55 | 271 | 12.0 | 25.0 | 0.00 | 0.00 | 0.00 | 86 | 1014.0 |
| 20260902052543 | 56 | 277 | 14.0 | 26.0 | 0.00 | 0.00 | 0.00 | 86 | 1014.0 |
| 20260902052039 | 56 | 292 | 15.0 | 26.0 | 0.00 | 0.00 | 0.00 | 85 | 1014.0 |
| 20260902051554 | 56 | 250 | 13.0 | 26.0 | 0.00 | 0.00 | 0.00 | 84 | 1013.8 |
| 20260902051039 | 56 | 303 | 14.0 | 33.0 | 0.00 | 0.00 | 0.00 | 84 | 1013.8 |
| 20260902050538 | 56 | 234 | 15.0 | 33.0 | 0.00 | 0.00 | 0.00 | 84 | 1013.6 |
| 20260902050112 | 56 | 288 | 17.0 | 27.0 | 0.00 | 0.00 | 0.00 | 83 | 1013.5 |
| 20260902045538 | 56 | 265 | 14.0 | 26.0 | 0.00 | 0.00 | 0.00 | 82 | 1013.6 |
| 20260902045038 | 56 | 298 | 11.0 | 26.0 | 0.00 | 0.00 | 0.00 | 82 | 1013.7 |
| 20260902044609 | 56 | 336 | 13.0 | 23.0 | 0.00 | 0.00 | 0.00 | 82 | 1013.6 |
| 20260902044041 | 56 | 252 | 13.0 | 22.0 | 0.00 | 0.00 | 0.00 | 82 | 1013.8 |
| 20260902043540 | 56 | 246 | 12.0 | 23.0 | 0.00 | 0.00 | 0.00 | 81 | 1013.6 |
| 20260902043056 | 57 | 286 | 9.0 | 24.0 | 0.00 | 0.00 | 0.00 | 81 | 1013.8 |
| 20260902042540 | 57 | 314 | 12.0 | 24.0 | 0.00 | 0.00 | 0.00 | 81 | 1013.8 |
| 20260902042041 | 57 | 314 | 9.0 | 26.0 | 0.00 | 0.00 | 0.00 | 82 | 1014.0 |
| 20260902041552 | 57 | 294 | 13.0 | 26.0 | 0.00 | 0.00 | 0.00 | 83 | 1014.3 |
| 20260902041040 | 57 | 309 | 15.0 | 25.0 | 0.00 | 0.00 | 0.00 | 82 | 1014.2 |
| 20260902040539 | 57 | 264 | 12.0 | 22.0 | 0.00 | 0.00 | 0.00 | 82 | 1014.2 |
| 20260902040054 | 57 | 275 | 10.0 | 22.0 | 0.00 | 0.00 | 0.00 | 81 | 1014.3 |
| 20260902035538 | 58 | 292 | 10.0 | 19.0 | 0.00 | 0.00 | 0.00 | 79 | 1014.2 |
| 20260902035038 | 58 | 298 | 10.0 | 21.0 | 0.00 | 0.00 | 0.00 | 78 | 1014.3 |
| 20260902034604 | 58 | 309 | 10.0 | 24.0 | 0.00 | 0.00 | 0.00 | 78 | 1014.4 |
| 20260902034038 | 58 | 252 | 12.0 | 24.0 | 0.00 | 0.00 | 0.00 | 77 | 1014.5 |
| 20260902033538 | 58 | 253 | 10.0 | 28.0 | 0.00 | 0.00 | 0.00 | 77 | 1014.6 |
| 20260902033104 | 58 | 244 | 15.0 | 28.0 | 0.00 | 0.00 | 0.00 | 77 | 1014.6 |
| 20260902032642 | 58 | 313 | 13.0 | 28.0 | 0.00 | 0.00 | 0.00 | 78 | 1014.6 |
| 20260902032039 | 58 | 277 | 12.0 | 27.0 | 0.00 | 0.00 | 0.00 | 77 | 1014.6 |
| 20260902031557 | 57 | 240 | 11.0 | 32.0 | 0.00 | 0.00 | 0.00 | 79 | 1014.5 |
| 20260902031040 | 57 | 273 | 10.0 | 32.0 | 0.00 | 0.00 | 0.00 | 80 | 1014.4 |
| 20260902030539 | 57 | 272 | 13.0 | 29.0 | 0.00 | 0.00 | 0.00 | 80 | 1014.4 |
| 20260902030046 | 57 | 333 | 11.0 | 29.0 | 0.00 | 0.00 | 0.00 | 83 | 1014.6 |
| 20260902025539 | 57 | 342 | 12.0 | 24.0 | 0.00 | 0.00 | 0.00 | 83 | 1014.6 |
| 20260902025039 | 57 | 307 | 12.0 | 22.0 | 0.00 | 0.00 | 0.00 | 82 | 1014.6 |
| 20260902024608 | 57 | 284 | 11.0 | 26.0 | 0.00 | 0.00 | 0.00 | 82 | 1014.5 |
| 20260902024041 | 58 | 262 | 13.0 | 26.0 | 0.00 | 0.00 | 0.00 | 81 | 1014.7 |
| 20260902023539 | 58 | 264 | 12.0 | 23.0 | 0.00 | 0.00 | 0.00 | 80 | 1014.6 |
| 20260902023058 | 58 | 275 | 8.0 | 22.0 | 0.00 | 0.00 | 0.00 | 82 | 1014.7 |
| 20260902022539 | 58 | 248 | 14.0 | 22.0 | 0.00 | 0.00 | 0.00 | 79 | 1014.6 |
| 20260902022036 | 58 | 283 | 14.0 | 20.0 | 0.00 | 0.00 | 0.00 | 79 | 1014.7 |
| 20260902021554 | 58 | 298 | 11.0 | 28.0 | 0.00 | 0.00 | 0.00 | 79 | 1014.7 |
| 20260902021037 | 58 | 251 | 13.0 | 28.0 | 0.00 | 0.00 | 0.00 | 78 | 1014.7 |
| 20260902020536 | 59 | 285 | 14.0 | 25.0 | 0.00 | 0.00 | 0.00 | 78 | 1014.7 |
| 20260902020051 | 59 | 314 | 13.0 | 24.0 | 0.00 | 0.00 | 0.00 | 78 | 1014.6 |
| 20260902015536 | 59 | 281 | 10.0 | 34.0 | 0.00 | 0.00 | 0.00 | 77 | 1014.7 |
| 20260902015042 | 58 | 291 | 13.0 | 34.0 | 0.00 | 0.00 | 0.00 | 74 | 1014.6 |
| 20260902014553 | 58 | 286 | 14.0 | 34.0 | 0.00 | 0.00 | 0.00 | 74 | 1014.9 |
| 20260902014037 | 58 | 260 | 13.0 | 25.0 | 0.00 | 0.00 | 0.00 | 79 | 1014.7 |
| 20260902013540 | 58 | 242 | 11.0 | 24.0 | 0.00 | 0.00 | 0.00 | 80 | 1014.7 |
| 20260902013058 | 58 | 311 | 11.0 | 25.0 | 0.00 | 0.00 | 0.00 | 79 | 1014.8 |
| 20260902012536 | 58 | 253 | 12.0 | 25.0 | 0.00 | 0.00 | 0.00 | 79 | 1014.7 |
| 20260902012036 | 58 | 281 | 16.0 | 25.0 | 0.00 | 0.00 | 0.00 | 78 | 1014.9 |
| 20260902011547 | 58 | 274 | 12.0 | 22.0 | 0.00 | 0.00 | 0.00 | 77 | 1014.8 |
| 20260902011037 | 58 | 291 | 12.0 | 22.0 | 0.00 | 0.00 | 0.00 | 77 | 1014.8 |
| 20260902010535 | 58 | 290 | 11.0 | 26.0 | 0.00 | 0.00 | 0.00 | 77 | 1015.0 |
| 20260902010053 | 58 | 252 | 13.0 | 26.0 | 0.00 | 0.00 | 0.00 | 75 | 1014.8 |
| 20260902005536 | 58 | 267 | 12.0 | 26.0 | 0.00 | 0.00 | 0.00 | 76 | 1014.8 |
| 20260902005037 | 59 | 236 | 11.0 | 24.0 | 0.00 | 0.00 | 0.00 | 77 | 1014.9 |
| 20260902004558 | 59 | 252 | 11.0 | 21.0 | 0.00 | 0.00 | 0.00 | 78 | 1015.0 |
| 20260902004036 | 58 | 267 | 11.0 | 21.0 | 0.00 | 0.00 | 0.00 | 77 | 1015.0 |
| 20260902003539 | 58 | 246 | 12.0 | 21.0 | 0.00 | 0.00 | 0.00 | 76 | 1015.2 |
| 20260902003053 | 58 | 231 | 12.0 | 21.0 | 0.00 | 0.00 | 0.00 | 76 | 1015.2 |
| 20260902002541 | 58 | 240 | 11.0 | 22.0 | 0.00 | 0.00 | 0.00 | 77 | 1015.2 |
| 20260902002035 | 58 | 252 | 14.0 | 26.0 | 0.00 | 0.00 | 0.00 | 76 | 1015.5 |
| 20260902001558 | 57 | 257 | 15.0 | 26.0 | 0.00 | 0.00 | 0.00 | 76 | 1015.6 |
| 20260902001038 | 58 | 249 | 11.0 | 23.0 | 0.00 | 0.00 | 0.00 | 76 | 1015.6 |
| 20260902000538 | 57 | 255 | 13.0 | 23.0 | 0.00 | 0.00 | 0.00 | 74 | 1015.8 |
| 20260901235538 | 57 | 241 | 13.0 | 22.0 | 0.00 | 0.00 | 0.00 | 75 | 1015.8 |
| 20260901235037 | 57 | 296 | 12.0 | 21.0 | 0.00 | 0.00 | 0.00 | 76 | 1015.7 |
| 20260901234554 | 57 | 305 | 11.0 | 25.0 | 0.00 | 0.00 | 0.00 | 77 | 1015.8 |
| 20260901234040 | 57 | 250 | 12.0 | 25.0 | 0.00 | 0.00 | 0.00 | 75 | 1015.8 |
| 20260901233544 | 57 | 304 | 11.0 | 20.0 | 0.00 | 0.00 | 0.00 | 77 | 1015.8 |
| 20260901233054 | 57 | 242 | 11.0 | 23.0 | 0.00 | 0.00 | 0.00 | 79 | 1015.8 |
| 20260901232536 | 57 | 246 | 12.0 | 23.0 | 0.00 | 0.00 | 0.00 | 77 | 1015.7 |
| 20260901232040 | 57 | 258 | 10.0 | 21.0 | 0.00 | 0.00 | 0.00 | 77 | 1015.6 |
| 20260901231548 | 57 | 248 | 10.0 | 21.0 | 0.00 | 0.00 | 0.00 | 78 | 1015.6 |
| 20260901231038 | 57 | 264 | 11.0 | 21.0 | 0.00 | 0.00 | 0.00 | 77 | 1015.6 |
| 20260901230536 | 57 | 281 | 11.0 | 22.0 | 0.00 | 0.00 | 0.00 | 77 | 1015.7 |
| 20260901230058 | 57 | 267 | 14.0 | 23.0 | 0.00 | 0.00 | 0.00 | 77 | 1015.6 |
| 20260901225535 | 58 | 240 | 10.0 | 23.0 | 0.00 | 0.00 | 0.00 | 80 | 1015.5 |
| 20260901225036 | 58 | 298 | 12.0 | 23.0 | 0.00 | 0.00 | 0.00 | 79 | 1015.6 |
| 20260901224555 | 57 | 246 | 12.0 | 25.0 | 0.00 | 0.00 | 0.00 | 79 | 1015.4 |
| 20260901224040 | 57 | 287 | 13.0 | 26.0 | 0.00 | 0.00 | 0.00 | 79 | 1015.5 |
| 20260901223538 | 57 | 281 | 14.0 | 26.0 | 0.00 | 0.00 | 0.00 | 79 | 1015.6 |
| 20260901223052 | 57 | 265 | 11.0 | 23.0 | 0.00 | 0.00 | 0.00 | 79 | 1015.5 |
| 20260901222536 | 57 | 309 | 14.0 | 23.0 | 0.00 | 0.00 | 0.00 | 78 | 1015.5 |
| 20260901222038 | 58 | 261 | 12.0 | 23.0 | 0.00 | 0.00 | 0.00 | 80 | 1015.4 |
| 20260901221549 | 57 | 265 | 11.0 | 23.0 | 0.00 | 0.00 | 0.00 | 78 | 1015.4 |
| 20260901221038 | 57 | 278 | 10.0 | 21.0 | 0.00 | 0.00 | 0.00 | 80 | 1015.4 |
| 20260901220536 | 57 | 248 | 12.0 | 21.0 | 0.00 | 0.00 | 0.00 | 79 | 1015.3 |
| 20260901220049 | 57 | 284 | 11.0 | 21.0 | 0.00 | 0.00 | 0.00 | 79 | 1015.4 |
| 20260901215539 | 57 | 263 | 13.0 | 21.0 | 0.00 | 0.00 | 0.00 | 80 | 1015.5 |
| 20260901215036 | 56 | 254 | 11.0 | 21.0 | 0.00 | 0.00 | 0.00 | 78 | 1015.4 |
| 20260901214555 | 56 | 254 | 10.0 | 21.0 | 0.00 | 0.00 | 0.00 | 78 | 1015.3 |
| 20260901214039 | 56 | 248 | 12.0 | 24.0 | 0.00 | 0.00 | 0.00 | 78 | 1015.2 |
| 20260901213536 | 56 | 278 | 13.0 | 24.0 | 0.00 | 0.00 | 0.00 | 78 | 1015.1 |
| 20260901213111 | 56 | 248 | 13.0 | 23.0 | 0.00 | 0.00 | 0.00 | 77 | 1015.1 |
| 20260901212536 | 56 | 286 | 11.0 | 20.0 | 0.00 | 0.00 | 0.00 | 79 | 1015.1 |
| 20260901212036 | 56 | 248 | 12.0 | 23.0 | 0.00 | 0.00 | 0.00 | 78 | 1015.2 |
| 20260901211557 | 57 | 339 | 10.0 | 25.0 | 0.00 | 0.00 | 0.00 | 80 | 1015.1 |
| 20260901211041 | 56 | 251 | 10.0 | 25.0 | 0.00 | 0.00 | 0.00 | 80 | 1014.9 |
| 20260901210541 | 56 | 269 | 11.0 | 24.0 | 0.00 | 0.00 | 0.00 | 80 | 1014.8 |
| 20260901210058 | 56 | 275 | 10.0 | 24.0 | 0.00 | 0.00 | 0.00 | 80 | 1014.7 |
| 20260901205537 | 56 | 246 | 11.0 | 21.0 | 0.00 | 0.00 | 0.00 | 80 | 1014.7 |
| 20260901205039 | 56 | 244 | 10.0 | 21.0 | 0.00 | 0.00 | 0.00 | 81 | 1014.8 |
| 20260901204555 | 56 | 246 | 12.0 | 21.0 | 0.00 | 0.00 | 0.00 | 81 | 1014.8 |
| 20260901204039 | 56 | 234 | 11.0 | 21.0 | 0.00 | 0.00 | 0.00 | 82 | 1014.9 |
| 20260901203539 | 56 | 237 | 9.0 | 22.0 | 0.00 | 0.00 | 0.00 | 83 | 1014.8 |
| 20260901203052 | 56 | 247 | 9.0 | 22.0 | 0.00 | 0.00 | 0.00 | 83 | 1014.6 |
| 20260901202540 | 56 | 292 | 11.0 | 22.0 | 0.00 | 0.00 | 0.00 | 83 | 1014.6 |
| 20260901202039 | 55 | 252 | 13.0 | 21.0 | 0.00 | 0.00 | 0.00 | 83 | 1014.5 |
| 20260901201603 | 55 | 242 | 8.0 | 17.0 | 0.00 | 0.00 | 0.00 | 84 | 1014.5 |
| 20260901201039 | 55 | 286 | 10.0 | 17.0 | 0.00 | 0.00 | 0.00 | 83 | 1014.5 |
| 20260901200539 | 55 | 272 | 7.0 | 19.0 | 0.00 | 0.00 | 0.00 | 84 | 1014.5 |
| 20260901200057 | 54 | 286 | 9.0 | 20.0 | 0.00 | 0.00 | 0.00 | 83 | 1014.6 |
| 20260901195539 | 54 | 288 | 10.0 | 20.0 | 0.00 | 0.00 | 0.00 | 83 | 1014.6 |
| 20260901195041 | 54 | 243 | 11.0 | 20.0 | 0.00 | 0.00 | 0.00 | 83 | 1014.6 |
| 20260901194559 | 54 | 287 | 10.0 | 17.0 | 0.00 | 0.00 | 0.00 | 84 | 1014.6 |
| 20260901194036 | 54 | 286 | 7.0 | 14.0 | 0.00 | 0.00 | 0.00 | 85 | 1014.5 |
| 20260901193539 | 54 | 285 | 4.0 | 16.0 | 0.00 | 0.00 | 0.00 | 85 | 1014.5 |
| 20260901193054 | 54 | 254 | 6.0 | 17.0 | 0.00 | 0.00 | 0.00 | 84 | 1014.5 |
| 20260901192537 | 54 | 245 | 9.0 | 17.0 | 0.00 | 0.00 | 0.00 | 85 | 1014.5 |
| 20260901192039 | 53 | 293 | 7.0 | 16.0 | 0.00 | 0.00 | 0.00 | 85 | 1014.5 |
| 20260901191549 | 54 | 299 | 6.0 | 16.0 | 0.00 | 0.00 | 0.00 | 86 | 1014.5 |
| 20260901191035 | 54 | 302 | 6.0 | 13.0 | 0.00 | 0.00 | 0.00 | 86 | 1014.3 |
| 20260901190538 | 54 | 251 | 7.0 | 13.0 | 0.00 | 0.00 | 0.00 | 86 | 1014.4 |
| 20260901190050 | 54 | 245 | 8.0 | 13.0 | 0.00 | 0.00 | 0.00 | 86 | 1014.4 |
| 20260901185540 | 54 | 252 | 7.0 | 12.0 | 0.00 | 0.00 | 0.00 | 86 | 1014.4 |
| 20260901185038 | 54 | 253 | 6.0 | 16.0 | 0.00 | 0.00 | 0.00 | 86 | 1014.4 |
| 20260901184552 | 54 | 236 | 7.0 | 16.0 | 0.00 | 0.00 | 0.00 | 86 | 1014.3 |
| 20260901184039 | 54 | 235 | 7.0 | 17.0 | 0.00 | 0.00 | 0.00 | 86 | 1014.3 |
| 20260901183538 | 54 | 244 | 7.0 | 17.0 | 0.00 | 0.00 | 0.00 | 86 | 1014.5 |
| 20260901183051 | 53 | 302 | 7.0 | 13.0 | 0.00 | 0.00 | 0.00 | 86 | 1014.4 |
| 20260901182539 | 54 | 247 | 4.0 | 16.0 | 0.00 | 0.00 | 0.00 | 86 | 1014.2 |
| 20260901182036 | 54 | 292 | 6.0 | 20.0 | 0.00 | 0.00 | 0.00 | 85 | 1014.3 |
| 20260901181547 | 54 | 274 | 11.0 | 20.0 | 0.00 | 0.00 | 0.00 | 85 | 1014.2 |
| 20260901181036 | 53 | 265 | 10.0 | 20.0 | 0.00 | 0.00 | 0.00 | 86 | 1014.2 |
| 20260901180535 | 53 | 248 | 11.0 | 20.0 | 0.00 | 0.00 | 0.00 | 86 | 1014.1 |
| 20260901180058 | 53 | 295 | 8.0 | 19.0 | 0.00 | 0.00 | 0.00 | 85 | 1013.9 |
| 20260901175539 | 53 | 234 | 9.0 | 19.0 | 0.00 | 0.00 | 0.00 | 85 | 1013.8 |
| 20260901175041 | 53 | 311 | 10.0 | 18.0 | 0.00 | 0.00 | 0.00 | 85 | 1013.8 |
| 20260901174551 | 53 | 251 | 9.0 | 17.0 | 0.00 | 0.00 | 0.00 | 85 | 1013.8 |
| 20260901174038 | 53 | 280 | 6.0 | 17.0 | 0.00 | 0.00 | 0.00 | 85 | 1013.9 |
| 20260901173540 | 53 | 259 | 5.0 | 15.0 | 0.00 | 0.00 | 0.00 | 85 | 1014.0 |
| 20260901173048 | 53 | 264 | 7.0 | 17.0 | 0.00 | 0.00 | 0.00 | 85 | 1013.9 |
| 20260901172539 | 53 | 287 | 9.0 | 18.0 | 0.00 | 0.00 | 0.00 | 85 | 1013.9 |
| 20260901172039 | 53 | 259 | 10.0 | 18.0 | 0.00 | 0.00 | 0.00 | 85 | 1013.9 |
| 20260901171606 | 53 | 294 | 6.0 | 16.0 | 0.00 | 0.00 | 0.00 | 85 | 1013.9 |
| 20260901171040 | 53 | 276 | 8.0 | 23.0 | 0.00 | 0.00 | 0.00 | 84 | 1013.8 |
| 20260901170539 | 53 | 292 | 9.0 | 23.0 | 0.00 | 0.00 | 0.00 | 84 | 1013.8 |
| 20260901170055 | 53 | 291 | 10.0 | 20.0 | 0.00 | 0.00 | 0.00 | 85 | 1013.8 |
| 20260901165539 | 53 | 257 | 8.0 | 17.0 | 0.00 | 0.00 | 0.00 | 85 | 1013.7 |
| 20260901165040 | 53 | 304 | 6.0 | 15.0 | 0.00 | 0.00 | 0.00 | 86 | 1013.8 |
| 20260901164558 | 53 | 288 | 7.0 | 15.0 | 0.00 | 0.00 | 0.00 | 86 | 1013.7 |
| 20260901164038 | 53 | 318 | 7.0 | 15.0 | 0.00 | 0.00 | 0.00 | 86 | 1013.7 |